Welcome to the New NWS' Forecast!
Most changes are behind the scenes, but click here for differences you might notice.
Latest weather observations around

Birmingham, Birmingham International Airport (KBHM)

Using English Units (Switch to International System of Units)
Date/ Time (CDT) Wind (mph) Vis. (mi) Weather Sky Cond. Temp (°F) Rel. Humidity Wind Chill (°F) Heat Index (°F) Pressure Precip. (in)
Air Dwpt 6 hour Altimeter (inHg) Sea level (inHg) 1 hr 3 hr 6 hr
Max Min
Oct 18 01:53 N 3 10 Partly Cloudy SCT250 55 49     80%     30.35 30.34      
Oct 18 00:53 N 6 10 Clear CLR 55 49     80%     30.35 30.33      
Oct 17 23:53 NNE 3 10 Clear CLR 60 47     62%     30.34 30.32      
Oct 17 22:53 N 3 10 Mostly Clear FEW110 60 49     67%     30.34 30.33      
Oct 17 21:53 Calm 10 Mostly Clear FEW080 FEW110 60 53     78%     30.34 30.32      
Oct 17 20:53 Calm 10 Clear   61 53     75%     30.33 30.32      
Oct 17 19:53 N 3 10 Mostly Cloudy BKN110 62 52     70%     30.33 30.32      
Oct 17 18:53 N 3 10 Cloudy OVC100 63 54     72%     30.31 30.3      
Oct 17 17:53 N 7 10 Cloudy OVC090 64 53     67%     30.3 30.29      
Oct 17 16:53 N 7 10 Cloudy BKN080 OVC100 65 51     61%     30.29 30.28      
Oct 17 15:53 NNW 9 10 Cloudy OVC080 66 52     61%     30.29 30.28      
Oct 17 14:53 NNW 9 10 Cloudy OVC090 66 53     63%     30.28 30.27      
Oct 17 13:53 N 6 10 Cloudy FEW090 OVC110 67 54     63%     30.27 30.26      
Oct 17 12:53 NNW 8 10 Cloudy OVC080 69 56     63%     30.29 30.27     0
Oct 17 11:53 NNE 7 10 Cloudy BKN080 OVC090 65 57     76%     30.31 30.29      
Oct 17 10:53 N 7 10 Cloudy FEW010 OVC080 62 57     84%     30.32 30.31      
Oct 17 09:53 N 8 10 Cloudy SCT008 OVC080 61 58     90%     30.31 30.29   0  
Oct 17 09:06 N 6 10 Cloudy SCT007 OVC085 60 58     93%     30.3        
Oct 17 08:53 NNE 5 6 Fog/Mist BKN007 OVC080 59 57     93%     30.29 30.28      
Oct 17 08:28 N 9 6 Fog/Mist BKN006 OVC080 59 57     93%     30.28        
Oct 17 08:12 N 8 10 Cloudy FEW005 BKN080 OVC090 60 58     93%     30.27        
Oct 17 07:53 NNE 5 10 Mostly Cloudy BKN085 BKN140 BKN250 59 57     93%     30.26 30.25 0    
Oct 17 07:06 NNE 6 9 Light Rain SCT008 BKN060 OVC100 59 57     93%     30.25   0    
Oct 17 06:53 NNE 6 6 Light Rain and Fog/Mist BKN008 OVC090 58 57     97%     30.26 30.24 0   0
Oct 17 05:53 N 7 7 Light Rain OVC007 59 58     96%     30.26 30.24 0    
Oct 17 04:53 NNW 8 9 Light Rain OVC005 60 58     93%     30.23 30.22 0    
Oct 17 03:53 NNW 7 10 Light Rain OVC005 60 58     93%     30.22 30.21 0 0  
Oct 17 03:31 N 6 10 Light Rain OVC005 60 59     96%     30.22   0    
Oct 17 02:53 N 6 10 Cloudy OVC003 60 59     96%     30.22 30.2      
Oct 17 01:53 N 9 10 Cloudy OVC004 60 59     96%     30.22 30.2      
Oct 17 00:53 N 9 9 Cloudy OVC002 61 60     97%     30.2 30.19      
Oct 17 00:45 N 7 3 Fog/Mist OVC002 61 60     97%     30.2        
Oct 17 00:33 NNW 8 1.75 Fog/Mist OVC003 61 60     97%     30.2        
Oct 16 22:53 N 5 10 Partly Cloudy SCT100 63 61     93%     30.19 30.17      
Oct 16 21:53 N 5 10 Partly Cloudy SCT065 62 60     93%     30.19 30.18      
Oct 16 20:53 Calm 10 Mostly Clear FEW065 62 60     93%     30.19 30.18      
Oct 16 20:15 N 6 10 Partly Cloudy SCT006 SCT070 62 60     93%     30.19        
Oct 16 19:53 3 10 Mostly Cloudy FEW046 BKN070 62 60     93%     30.19 30.18      
Oct 16 18:53 Calm 10 Clear   62 60     93%     30.2 30.18 0   0
Oct 16 17:53 NNW 9 5 Light Rain and Fog/Mist BKN006 BKN017 OVC021 62 60     93%     30.2 30.19 0    
Oct 16 17:30 NW 11 9 Cloudy OVC005 62 60     93%     30.2        
Oct 16 16:53 NNW 10 8 Cloudy OVC004 63 61     93%     30.17 30.16      
Oct 16 16:17 N 8 4 Fog/Mist OVC004 64 62     93%     30.15        
Oct 16 15:53 N 8 4 Fog/Mist OVC005 65 62     90%     30.15 30.13      
Oct 16 15:01 N 9 10 Cloudy BKN005 OVC016 66 63     90%     30.15        
Oct 16 14:53 NNW 11 10 Cloudy SCT006 OVC016 66 63     90%     30.15 30.13      
Oct 16 14:48 NNW 10 10 Cloudy SCT006 OVC016 66 63     88%     30.15        
Oct 16 13:53 3 10 Cloudy OVC017 70 63     78%     30.15 30.13      
Oct 16 12:53 ENE 5 10 Cloudy OVC017 70 64     81%     30.16 30.14     0
Oct 16 12:24 NE 7 10 Cloudy SCT011 OVC018 70 63     78%     30.17        
Oct 16 12:15 NE 5 10 Cloudy BKN011 OVC018 70 63     78%     30.18        
Oct 16 11:53 NNE 5 10 Cloudy SCT009 OVC019 68 63     84%     30.18 30.16      
Oct 16 11:34 N 5 10 Cloudy SCT009 OVC019 67 63     87%     30.19        
Oct 16 10:53 NNW 6 6 Fog/Mist OVC008 64 61     90%     30.21 30.19 0    
Oct 16 10:41 NNW 6 6 Fog/Mist OVC008 64 61     90%     30.21   0    
Oct 16 09:53 N 3 5 Rain and Fog/Mist OVC011 63 60     90%     30.22 30.2 0 0  
Oct 16 09:11 NNW 5 10 Cloudy BKN011 OVC023 63 59     87%     30.21        
Oct 16 08:53 5 10 Cloudy FEW011 OVC023 63 59     87%     30.21 30.19      
Oct 16 07:53 NNE 5 10 Cloudy BKN022 OVC037 62 58     86%     30.19 30.17      
Oct 16 07:17 NNE 5 10 Cloudy FEW011 BKN024 OVC030 61 58     90%     30.18        
Oct 16 06:53 NE 3 10 Cloudy BKN007 BKN026 OVC033 61 57     87%     30.19 30.17      
Oct 16 05:53 NNE 8 10 Cloudy OVC005 60 57     90%     30.19 30.17      
Oct 16 04:53 N 10 8 Cloudy OVC005 60 58     93%     30.19 30.16      
Oct 16 03:53 N 10 9 Cloudy OVC005 61 60     97%     30.16 30.14      
Oct 16 03:31 N 13 9 Cloudy OVC005 63 61     93%     30.16        
Oct 16 02:53 N 9 8 Cloudy OVC004 65 63     93%     30.16 30.14      
Oct 16 02:10 NNW 9 7 Cloudy OVC004 66 64     93%     30.16        
Oct 16 01:53 N 8 8 Cloudy OVC005 67 65     93%     30.16 30.13      
Oct 16 00:53 N 9 10 Cloudy OVC005 68 66     93%     30.15 30.13      
Oct 16 00:23 N 8 9 Cloudy OVC005 69 67     93%     30.15        
Oct 16 00:00 N 6 8 Mostly Cloudy BKN004 70 68     93%     30.14        
Oct 15 23:53 N 6 8 Cloudy OVC150 70 68     93%     30.14 30.12      
Oct 15 22:53 NNW 3 10 Mostly Cloudy BKN150 71 68     90%   72 30.15 30.13      
Oct 15 21:53 NW 6 10 Mostly Cloudy BKN150 72 68     87%   73 30.16 30.14      
Oct 15 20:53 Calm 10 Partly Cloudy SCT150 73 67     81%   74 30.16 30.14      
Oct 15 19:53 Calm 10 Clear CLR 72 67     84%   73 30.15 30.13      
Oct 15 18:53 N 5 10 Mostly Clear FEW047 77 68     74%   78 30.14 30.12      
Oct 15 17:53 N 7 10 Partly Cloudy SCT040 SCT250 79 65     62%   80 30.11 30.09      
Oct 15 16:53 WNW 8 10 Mostly Clear FEW055 FEW250 84 64     51%   85 30.11 30.08      
Oct 15 15:53 WSW 8 10 Mostly Cloudy FEW035 BKN055 83 64     53%   84 30.11 30.09      
Oct 15 14:53 WSW 7 10 Partly Cloudy FEW037 SCT060 84 67     57%   87 30.11 30.09      
Oct 15 13:53 SW 9 10 Mostly Cloudy FEW026 BKN037 BKN060 83 67     59%   86 30.12 30.09      
Oct 15 12:53 SW 7 10 Mostly Cloudy SCT024 BKN030 BKN055 81 69     67%   84 30.13 30.1      
Oct 15 12:48 6 10 Mostly Cloudy SCT024 BKN030 BKN055 81 68     66%   83 30.13        
Oct 15 11:53 3 10 Cloudy OVC021 77 67     71%   78 30.14 30.11      
Oct 15 10:53 Calm 10 Cloudy BKN020 OVC029 75 66     74%   76 30.15 30.13      
Oct 15 10:31 S 6 10 Mostly Cloudy SCT020 BKN028 BKN047 75 66     74%   76 30.16        
Oct 15 09:53 S 7 10 Partly Cloudy SCT042 74 65     74%   74 30.16 30.13      
Oct 15 09:39 S 6 10 Mostly Cloudy SCT012 BKN043 74 65     74%   74 30.16        
Oct 15 08:53 SSW 6 10 Mostly Cloudy BKN011 BKN038 73 63     71%   73 30.15 30.13      
Oct 15 08:48 S 6 10 Cloudy BKN011 OVC038 73 63     69%   74 30.15        
Oct 15 07:53 SE 3 10 Mostly Clear FEW140 70 61     73%     30.14 30.11      
Oct 15 06:53 Calm 10 Mostly Clear FEW140 68 60     76%     30.12 30.1      
Oct 15 05:53 Calm 10 Clear CLR 69 59     70%     30.11 30.08      
Oct 15 04:53 Calm 10 Mostly Clear FEW250 70 59     68%     30.09 30.06      
Oct 15 03:53 S 5 10 Mostly Clear FEW140 72 58     61%   72 30.08 30.05      
Oct 15 02:53 SSE 6 10 Clear CLR 72 57     59%   72 30.08 30.05      
Oct 15 01:53 SSE 7 10 Mostly Clear FEW140 74 57     56%   74 30.1 30.07      
Oct 15 00:53 SSE 7 10 Partly Cloudy SCT140 75 58     55%   75 30.09 30.06      
Oct 14 23:53 5 10 Clear   75 58     55%   75 30.09 30.06      
Oct 14 22:53 6 10 Mostly Clear FEW120 75 59     57%   75 30.09 30.07      
Oct 14 21:53 SSE 6 10 Mostly Cloudy FEW120 BKN140 75 59     57%   75 30.1 30.07      
Oct 14 20:53 5 10 Partly Cloudy SCT120 76 59     56%   76 30.08 30.06      
Oct 14 19:53 SSE 6 10 Partly Cloudy SCT120 78 59     52%   78 30.06 30.03      
Oct 14 18:53 SSE 3 10 Mostly Cloudy FEW120 BKN140 79 56     45%   79 30.05 30.03      
Oct 14 17:53 SSE 7 10 Mostly Cloudy BKN130 82 55     40%   81 30.03 30.01      
Oct 14 16:53 SSE 8 10 Mostly Cloudy BKN120 83 55     38%   82 30.02 30      
Oct 14 15:53 S 11 10 Mostly Clear FEW120 85 54     35%   83 30.02 30      
Oct 14 14:53 S 11 10 Partly Cloudy SCT110 85 52     32%   83 30.03 30.01      
Oct 14 13:53 SSW 9 10 Mostly Clear FEW100 85 52     32%   83 30.03 30.01      
Oct 14 12:53 S 13 10 Partly Cloudy SCT100 84        %     30.04 30.02      
Oct 14 11:53 S 9 10 Mostly Cloudy BKN110 80 57     45%   80 30.07 30.05      
Oct 14 10:53 SSE 6 10 Mostly Cloudy SCT100 BKN120 75 58     55%   75 30.08 30.06      
Oct 14 09:53 SSE 3 10 Cloudy BKN100 OVC120 70 57     63%     30.1 30.08      
Oct 14 08:53 S 6 10 Cloudy OVC100 69 57     65%     30.08 30.06      
Oct 14 07:53 Calm 10 Mostly Cloudy BKN100 65 57     76%     30.06 30.04      
Oct 14 06:53 ESE 5 10 Cloudy BKN095 OVC110 62 56     80%     30.04 30.03      
Oct 14 05:53 Calm 10 Mostly Clear FEW100 63 56     78%     30.05 30.03      
Oct 14 04:53 ESE 6 10 Clear CLR 64 56     75%     30.02 30      
Oct 14 03:53 ENE 5 10 Clear CLR 63 56     78%     30.01 29.99      
Oct 14 02:53 3 10 Mostly Clear FEW110 63 56     78%     30.01 29.99      
Oct 14 01:53 E 5 10 Partly Cloudy SCT150 63 56     78%     30.01 29.99      
Oct 14 00:53 E 8 10 Clear CLR 65 56     73%     30 29.98      
Oct 13 23:53 Calm 10 Clear CLR 65 56     73%     30.02 30      
Oct 13 22:53 E 3 10 Mostly Cloudy BKN150 66 55     68%     30.03 30.01      
Oct 13 21:53 Calm 10 Mostly Cloudy BKN150 66 56     70%     30.02 30.01      
Oct 13 20:53 E 5 10 Clear CLR 64 58     81%     30 29.98      
Oct 13 19:53 E 3 10 Clear CLR 66 57     73%     30.01 29.99      
Oct 13 18:53 N 3 10 Clear CLR 67 57     71%     29.99 29.97      
Oct 13 17:53 N 6 10 Mostly Clear FEW060 FEW250 71 55     57%   71 29.97 29.95      
Oct 13 16:53 NW 5 10 Mostly Clear FEW045 74 54     50%   73 29.96 29.94      
Oct 13 15:53 W 7 10 Mostly Clear FEW043 73 54     51%   72 29.97 29.96      
Oct 13 14:53 Calm 10 Partly Cloudy SCT042 74 54     50%   73 29.97 29.96      
Oct 13 13:53 Calm 10 Partly Cloudy SCT050 SCT250 74 54     50%   73 29.99 29.97      
Oct 13 12:53 W 5 10 Mostly Clear FEW050 FEW250 72 52     49%   71 30.02 30      
Oct 13 11:53 Calm 10 Mostly Clear FEW050 FEW250 71 52     51%   70 30.03 30.02      
Oct 13 10:53 5 10 Mostly Clear FEW050 FEW250 68 51     55%     30.05 30.03      
Oct 13 09:53 NNE 7 10 Mostly Clear FEW050 FEW250 66 50     56%     30.04 30.03      
Oct 13 08:53 N 7 10 Mostly Clear FEW050 64 50     60%     30.04 30.03      
Oct 13 04:53 Calm 10 Cloudy OVC055 61 53     75%     29.98 29.96      
Oct 12 23:53 Calm 10 Mostly Cloudy BKN080 58 52     81%     29.96 29.94      
Oct 12 20:53 E 3 10 Partly Cloudy SCT120 60 51     72%     29.96 29.95      
Oct 12 18:53 N 5 10 Clear CLR 64 48     56%     29.94 29.93      
Oct 12 16:53 NW 7 10 Mostly Clear FEW250 73 44     35%   72 29.93 29.92      
Oct 12 10:53 3 10 Mostly Cloudy BKN250 63 45     52%     30.04 30.03      
Oct 12 07:53 NE 3 10 Mostly Clear FEW250 52 47     83%     30.03 30.02      
Oct 12 06:53 N 6 10 Mostly Clear FEW250 48 46     93% 45   30.03 30.02      
Oct 12 00:53 N 3 10 Clear CLR 56 50     80%     30.03 30.01      
Oct 11 22:53 N 8 10 Clear   57 50     77%     30.02 30.01      
May 13 22:53 Calm 10 Clear CLR 73 64     73%   73 30.09 30.06      
May 13 16:53 NNW 7 10 Mostly Clear FEW065 91 58     33%   90 30.06 30.03      
May 13 13:53 6 10 Mostly Clear FEW065 89 60     38%   89 30.12 30.1      
May 12 16:53 S 7 10 Mostly Clear FEW250 89 53     29%   87 30.1 30.08      
May 12 08:53 Calm 10 Clear CLR 78 58     50%   78 30.2 30.17      
May 12 03:53 Calm 10 Clear CLR 64 59     84%     30.13 30.1      
May 11 20:53 SSE 3 10 Clear CLR 78 58     50%   78 30.11 30.08      
Jun 12 03:53 SSE 5 10 Mostly Clear FEW040 74 71     91%   75 30.15 30.13      
Jun 11 23:53 SSE 5 10 Mostly Clear FEW050 79 70     74%   82 30.15 30.12      
Jun 11 07:53 SE 9 10 Partly Cloudy SCT065 SCT250 75 66     74%   76 30.17 30.14      
Jun 10 13:53 ESE 9 10 Mostly Cloudy SCT060 BKN075 86 58     39%   85 30.09 30.06      
Jun 10 11:53 3 10 Partly Cloudy SCT070 82        %     30.11 30.09      
Jun 08 22:53 Calm 10 Clear CLR 68 59     73%     29.95 29.93      
Jun 08 20:53 N 7 10 Mostly Clear FEW250 70 58     66%     29.91 29.89      
Jun 07 18:53   10 Mostly Clear FEW065 FEW250 79 54     42%   79 29.87 29.85      
Jun 06 03:11 NE 5 10 Mostly Cloudy FEW007 FEW022 BKN028 71 70     96%   72 29.81        
Jun 06 02:53 NNE 5 10 Partly Cloudy SCT120 71 70     96%   72 29.81 29.78      
Jun 05 19:53 Calm 10 Light Rain FEW020 SCT120 OVC250 72 70     93%   73 29.82 29.8 0    
Jun 05 14:53 Calm 10 Cloudy BKN065 BKN100 OVC250 75 70     84%   76 29.84 29.82 0